TimeEST,TemperatureF,Dew PointF,Humidity,Sea Level PressureIn,VisibilityMPH,Wind Direction,Wind SpeedMPH,Gust SpeedMPH,PrecipitationIn,Events,Conditions,WindDirDegrees,DateUTC
12:56 AM,44.1,37.0,76,29.73,10.0,West,10.4,-,N/A,,Mostly Cloudy,260,2013-02-27 05:56:00
1:56 AM,44.1,36.0,73,29.74,10.0,West,12.7,-,N/A,,Overcast,260,2013-02-27 06:56:00
2:56 AM,44.1,34.0,68,29.75,10.0,West,18.4,-,N/A,,Scattered Clouds,260,2013-02-27 07:56:00
3:56 AM,43.0,34.0,71,29.74,10.0,West,16.1,25.3,N/A,,Overcast,260,2013-02-27 08:56:00
4:56 AM,43.0,33.1,68,29.76,10.0,West,15.0,19.6,N/A,,Overcast,260,2013-02-27 09:56:00
5:56 AM,43.0,33.1,68,29.78,10.0,WSW,12.7,24.2,N/A,,Overcast,250,2013-02-27 10:56:00
6:56 AM,42.1,34.0,73,29.79,10.0,WSW,12.7,-,N/A,,Overcast,250,2013-02-27 11:56:00
7:56 AM,42.1,33.1,70,29.81,10.0,WSW,11.5,-,N/A,,Clear,250,2013-02-27 12:56:00
8:56 AM,44.1,33.1,65,29.82,10.0,WSW,13.8,19.6,N/A,,Clear,250,2013-02-27 13:56:00
9:56 AM,46.0,33.1,61,29.85,10.0,West,15.0,21.9,N/A,,Clear,270,2013-02-27 14:56:00
10:56 AM,48.0,34.0,58,29.85,10.0,SW,16.1,21.9,N/A,,Partly Cloudy,230,2013-02-27 15:56:00
11:56 AM,50.0,34.0,54,29.85,10.0,WSW,16.1,24.2,N/A,,Clear,250,2013-02-27 16:56:00
12:56 PM,52.0,35.1,53,29.83,10.0,WSW,18.4,24.2,N/A,,Clear,240,2013-02-27 17:56:00
1:56 PM,54.0,35.1,49,29.81,10.0,SW,18.4,25.3,N/A,,Clear,230,2013-02-27 18:56:00
2:56 PM,55.0,35.1,47,29.79,10.0,SW,16.1,25.3,N/A,,Clear,220,2013-02-27 19:56:00
3:56 PM,57.0,36.0,45,29.78,10.0,SW,15.0,-,N/A,,Clear,220,2013-02-27 20:56:00
4:56 PM,55.9,34.0,44,29.77,10.0,SW,18.4,24.2,N/A,,Clear,230,2013-02-27 21:56:00
5:56 PM,55.0,30.9,40,29.78,10.0,West,15.0,24.2,N/A,,Clear,260,2013-02-27 22:56:00
6:56 PM,52.0,32.0,47,29.79,10.0,WSW,10.4,-,N/A,,Clear,250,2013-02-27 23:56:00
7:56 PM,51.1,33.1,50,29.80,10.0,West,9.2,-,N/A,,Clear,270,2013-02-28 00:56:00
9:56 PM,48.0,33.1,56,29.80,10.0,West,4.6,-,N/A,,Clear,270,2013-02-28 02:56:00
11:56 PM,46.0,35.1,66,29.79,10.0,WNW,9.2,-,N/A,,Clear,290,2013-02-28 04:56:00